KC3HIX Weather Reports


time (UTC)temp
C
wind
direction
speed
KPH
gust
KPH
rain 1hr
cm
rain 24hr
cm
rain mn
cm
humidity
%
barometer
mb
20260504050504 5 0 0.0 0.0 0.00 0.00 0.00 82 1013.4
20260504050004 5 0 0.0 0.0 0.00 0.00 0.00 81 1013.4
20260504045504 5 0 0.0 0.0 0.00 0.00 0.00 81 1013.7
20260504045004 5 0 0.0 0.0 0.00 0.00 0.00 80 1013.4
20260504044504 5 0 0.0 0.0 0.00 0.00 0.00 80 1013.4
20260504044003 5 0 0.0 0.0 0.00 0.00 0.00 79 1013.7
20260504043525 5 0 0.0 0.0 0.00 0.00 0.00 80 1013.4
20260504043004 5 0 0.0 0.0 0.00 0.00 0.00 80 1013.4
20260504042525 5 0 0.0 0.0 0.00 0.00 0.00 79 1013.4
20260504042004 5 0 0.0 0.0 0.00 0.00 0.00 79 1013.7
20260504041503 5 0 0.0 0.0 0.00 0.00 0.00 78 1013.4
20260504041004 6 0 0.0 0.0 0.00 0.00 0.00 78 1013.4
20260504040524 6 0 0.0 0.0 0.00 0.00 0.00 77 1013.4
20260504040004 6 0 0.0 0.0 0.00 0.00 0.00 77 1013.4
20260504035503 6 0 0.0 0.0 0.00 0.00 0.00 76 1013.4
20260504035003 6 0 0.0 0.0 0.00 0.00 0.00 77 1013.4
20260504034525 6 0 0.0 0.0 0.00 0.00 0.00 75 1013.0
20260504034003 6 0 0.0 0.0 0.00 0.00 0.00 76 1013.4
20260504033504 6 0 0.0 0.0 0.00 0.00 0.00 75 1013.4
20260504033003 6 0 0.0 0.0 0.00 0.00 0.00 76 1013.0
20260504032503 6 0 0.0 0.0 0.00 0.00 0.00 75 1013.0
20260504032003 6 0 0.0 0.0 0.00 0.00 0.00 75 1013.0
20260504031503 7 0 0.0 0.0 0.00 0.00 0.00 74 1013.0
20260504031003 7 0 0.0 0.0 0.00 0.00 0.00 73 1013.0
20260504030524 7 0 0.0 0.0 0.00 0.00 0.00 73 1013.4
20260504030003 7 0 0.0 0.0 0.00 0.00 0.00 72 1013.4
20260504025503 7 0 0.0 0.0 0.00 0.00 0.00 72 1013.0
20260504025003 7 0 0.0 0.0 0.00 0.00 0.00 70 1013.0
20260504024503 7 0 0.0 0.0 0.00 0.00 0.00 70 1013.0
20260504024003 7 0 0.0 0.0 0.00 0.00 0.00 69 1013.0
20260504023503 7 0 0.0 0.0 0.00 0.00 0.00 69 1013.0
20260504023024 7 0 0.0 0.0 0.00 0.00 0.00 69 1013.0
20260504022524 7 0 0.0 0.0 0.00 0.00 0.00 68 1013.0
20260504022003 7 0 0.0 0.0 0.00 0.00 0.00 67 1013.0
20260504021524 8 0 0.0 0.0 0.00 0.00 0.00 68 1013.0
20260504021003 8 0 0.0 0.0 0.00 0.00 0.00 65 1012.7
20260504020503 8 0 0.0 0.0 0.00 0.00 0.00 65 1013.0
20260504020003 8 0 0.0 0.0 0.00 0.00 0.00 65 1013.0
20260504015524 8 0 0.0 0.0 0.00 0.00 0.00 65 1013.0
20260504015003 8 0 0.0 0.0 0.00 0.00 0.00 66 1012.7
20260504014503 8 0 0.0 0.0 0.00 0.00 0.00 64 1013.0
20260504014003 9 0 0.0 0.0 0.00 0.00 0.00 64 1012.7
20260504013503 9 0 0.0 0.0 0.00 0.00 0.00 63 1012.7
20260504013003 9 0 0.0 0.0 0.00 0.00 0.00 60 1012.7
20260504012505 10 0 0.0 0.0 0.00 0.00 0.00 58 1012.7
20260504012005 10 0 0.0 0.0 0.00 0.00 0.00 55 1012.7
20260504011505 10 0 0.0 0.0 0.00 0.00 0.00 55 1012.3
20260504011005 10 0 0.0 0.0 0.00 0.00 0.00 51 1012.7
20260504010505 10 0 0.0 0.0 0.00 0.00 0.00 47 1012.7
20260504010005 11 0 0.0 0.0 0.00 0.00 0.00 47 1012.7
20260504005505 11 0 0.0 0.0 0.00 0.00 0.00 47 1012.7
20260504005026 11 0 0.0 0.0 0.00 0.00 0.00 47 1012.7
20260504004505 11 0 0.0 0.0 0.00 0.00 0.00 46 1012.7
20260504004025 11 0 0.0 0.0 0.00 0.00 0.00 47 1012.7
20260504003505 11 0 0.0 0.0 0.00 0.00 0.00 44 1012.3
20260504003005 11 0 0.0 0.0 0.00 0.00 0.00 45 1012.3
20260504002504 12 0 0.0 0.0 0.00 0.00 0.00 45 1012.3
20260504002004 12 0 0.0 0.0 0.00 0.00 0.00 44 1012.3
20260504001504 12 0 0.0 0.0 0.00 0.00 0.00 43 1012.3
20260504001004 12 0 0.0 0.0 0.00 0.00 0.00 43 1012.3
20260504000504 12 0 0.0 0.0 0.00 0.00 0.00 43 1012.0
20260504000025 12 0 0.0 0.0 0.00 0.00 0.00 42 1012.0
20260503235506 13 0 0.0 0.0 0.00 0.00 0.00 41 1012.3
20260503235026 13 0 0.0 0.0 0.00 0.00 0.00 41 1012.0
20260503234504 13 0 0.0 0.0 0.00 0.00 0.00 39 1012.0
20260503234027 13 0 0.0 0.0 0.00 0.00 0.00 39 1011.7
20260503233504 13 0 0.0 0.0 0.00 0.00 0.00 38 1012.0
20260503233004 14 0 0.0 0.0 0.00 0.00 0.00 37 1012.0
20260503232525 14 0 0.0 0.0 0.00 0.00 0.00 38 1011.7
20260503232004 14 0 0.0 0.0 0.00 0.00 0.00 38 1012.0
20260503231525 14 0 0.0 0.0 0.00 0.00 0.00 38 1012.0
20260503231004 15 0 0.0 0.0 0.00 0.00 0.00 38 1012.0
20260503230504 15 0 0.0 0.0 0.00 0.00 0.00 35 1012.0
20260503230004 15 0 0.0 0.0 0.00 0.00 0.00 37 1011.7
20260503225504 15 0 0.0 0.0 0.00 0.00 0.00 36 1011.7
20260503225004 15 0 0.0 0.0 0.00 0.00 0.00 34 1012.0
20260503224504 16 0 0.0 0.0 0.00 0.00 0.00 34 1011.7
20260503224004 16 0 0.0 0.0 0.00 0.00 0.00 35 1011.7
20260503223504 16 0 0.0 0.0 0.00 0.00 0.00 34 1011.7
20260503223004 16 0 0.0 0.0 0.00 0.00 0.00 34 1012.0
20260503222504 16 0 0.0 0.0 0.00 0.00 0.00 34 1011.7
20260503222004 16 0 0.0 0.0 0.00 0.00 0.00 35 1011.7
20260503221504 16 0 0.0 0.0 0.00 0.00 0.00 35 1011.7
20260503221004 17 0 0.0 0.0 0.00 0.00 0.00 34 1012.0
20260503220525 17 0 0.0 0.0 0.00 0.00 0.00 33 1012.0
20260503220004 17 0 0.0 0.0 0.00 0.00 0.00 33 1012.0
20260503215525 17 0 0.0 0.0 0.00 0.00 0.00 33 1011.7
20260503215004 17 0 0.0 0.0 0.00 0.00 0.00 31 1012.0
20260503214504 17 0 0.0 0.0 0.00 0.00 0.00 33 1012.0
20260503214004 17 0 0.0 0.0 0.00 0.00 0.00 30 1011.7
20260503213504 17 0 0.0 0.0 0.00 0.00 0.00 34 1011.7
20260503213004 17 0 0.0 0.0 0.00 0.00 0.00 31 1011.7
20260503212504 17 0 0.0 0.0 0.00 0.00 0.00 33 1011.7
20260503212004 17 0 0.0 0.0 0.00 0.00 0.00 32 1011.7
20260503211504 17 0 0.0 0.0 0.00 0.00 0.00 32 1011.7
20260503211004 17 0 0.0 0.0 0.00 0.00 0.00 34 1011.7
20260503210504 18 0 0.0 0.0 0.00 0.00 0.00 33 1011.7
20260503210005 18 0 0.0 0.0 0.00 0.00 0.00 32 1011.7
20260503205504 18 0 0.0 0.0 0.00 0.00 0.00 31 1011.7
20260503205004 18 0 0.0 0.0 0.00 0.00 0.00 32 1011.7
20260503204504 18 0 0.0 0.0 0.00 0.00 0.00 35 1011.7
20260503204004 18 0 0.0 0.0 0.00 0.00 0.00 34 1011.3
20260503203504 17 0 0.0 0.0 0.00 0.00 0.00 32 1011.7
20260503203004 17 0 0.0 0.0 0.00 0.00 0.00 31 1011.7
20260503202504 17 0 0.0 0.0 0.00 0.00 0.00 31 1011.7
20260503202003 17 0 0.0 0.0 0.00 0.00 0.00 33 1011.7
20260503201504 18 0 0.0 0.0 0.00 0.00 0.00 31 1011.7
20260503201004 17 0 0.0 0.0 0.00 0.00 0.00 29 1011.7
20260503200525 17 0 0.0 0.0 0.00 0.00 0.00 31 1012.0
20260503200004 17 0 0.0 0.0 0.00 0.00 0.00 33 1011.7
20260503195503 17 0 0.0 0.0 0.00 0.00 0.00 29 1011.7
20260503195003 17 0 0.0 0.0 0.00 0.00 0.00 32 1012.0
20260503194525 17 0 0.0 0.0 0.00 0.00 0.00 33 1012.0
20260503194004 17 0 0.0 0.0 0.00 0.00 0.00 33 1012.0
20260503193503 17 0 0.0 0.0 0.00 0.00 0.00 33 1012.3
20260503193003 16 0 0.0 0.0 0.00 0.00 0.00 32 1012.0
20260503192504 16 0 0.0 0.0 0.00 0.00 0.00 33 1012.3
20260503192025 16 0 0.0 0.0 0.00 0.00 0.00 31 1012.7
20260503191504 17 0 0.0 0.0 0.00 0.00 0.00 32 1012.3
20260503191004 17 0 0.0 0.0 0.00 0.00 0.00 30 1012.3
20260503190525 17 0 0.0 0.0 0.00 0.00 0.00 32 1012.3
20260503190024 17 0 0.0 0.0 0.00 0.00 0.00 33 1012.3
20260503185503 17 0 0.0 0.0 0.00 0.00 0.00 34 1012.7
20260503185003 16 0 0.0 0.0 0.00 0.00 0.00 29 1012.3
20260503184504 16 0 0.0 0.0 0.00 0.00 0.00 30 1012.7
20260503184003 16 0 0.0 0.0 0.00 0.00 0.00 31 1012.7
20260503183503 16 0 0.0 0.0 0.00 0.00 0.00 32 1012.7
20260503183003 16 0 0.0 0.0 0.00 0.00 0.00 28 1012.7
20260503182503 16 0 0.0 0.0 0.00 0.00 0.00 35 1012.7
20260503182004 15 0 0.0 0.0 0.00 0.00 0.00 32 1012.7
20260503181504 15 0 0.0 0.0 0.00 0.00 0.00 32 1013.0
20260503181025 15 0 0.0 0.0 0.00 0.00 0.00 36 1013.0
20260503180503 14 0 0.0 0.0 0.00 0.00 0.00 33 1013.0
20260503180024 14 0 0.0 0.0 0.00 0.00 0.00 34 1013.0
20260503175503 15 0 0.0 0.0 0.00 0.00 0.00 34 1013.0
20260503175003 15 0 0.0 0.0 0.00 0.00 0.00 33 1013.4
20260503174503 15 0 0.0 0.0 0.00 0.00 0.00 32 1013.4
20260503174003 14 0 0.0 0.0 0.00 0.00 0.00 32 1013.4
20260503173503 14 0 0.0 0.0 0.00 0.00 0.00 35 1013.4
20260503173003 13 0 0.0 0.0 0.00 0.00 0.00 35 1013.4
20260503172503 14 0 0.0 0.0 0.00 0.00 0.00 37 1013.7
20260503172003 13 0 0.0 0.0 0.00 0.00 0.00 39 1013.7
20260503171524 14 0 0.0 0.0 0.00 0.00 0.00 34 1013.7
20260503171003 14 0 0.0 0.0 0.00 0.00 0.00 36 1013.7
20260503170508 14 0 0.0 0.0 0.00 0.00 0.00 33 1014.1
20260503151008 11 0 0.0 0.0 0.00 0.00 0.00 37 1015.1
20260503150507 11 0 0.0 0.0 0.00 0.00 0.00 40 1014.8
20260503131007 13 0 0.0 0.0 0.00 0.00 0.00 40 1015.4
20260503130507 13 0 0.0 0.0 0.00 0.00 0.00 40 1015.4
20260503110507 3 0 0.0 0.0 0.00 0.00 0.00 81 1015.1
20260503090506 3 0 0.0 0.0 0.00 0.00 0.00 77 1013.7
20260503081506 5 0 0.0 0.0 0.00 0.00 0.00 68 1013.7
20260503081006 5 0 0.0 0.0 0.00 0.00 0.00 69 1013.4
20260503080506 5 0 0.0 0.0 0.00 0.00 0.00 67 1013.4
20260503072506 6 0 0.0 0.0 0.00 0.00 0.00 64 1013.0
20260503072006 6 0 0.0 0.0 0.00 0.00 0.00 63 1013.0
20260503071527 6 0 0.0 0.0 0.00 0.00 0.00 63 1013.4
20260503071006 6 0 0.0 0.0 0.00 0.00 0.00 63 1013.0